Tracking 28790 objects as of 19-Apr-2024
HD Live streaming from Space Station
objects crossing your sky now

FENGYUN 1C DEB

Track FENGYUN 1C DEB now!
10-day predictions


NORAD ID: 31229
Int'l Code: 1999-025BLK
Perigee: 804.8 km
Apogee: 890.7 km
Inclination: 98.9 °
Period: 101.7 minutes
Semi major axis: 7218 km
RCS: 0.015 m2 (small)
Launch date: May 10, 1999
Source: People's Republic of China (PRC)
Launch site: Taiyaun Space Center, China (TSC)

Note: This is SATELLITE DEBRIS
Your satellite tracking list
Your tracking list is empty




NASA's NSSDC Master Catalog

Two Line Element Set (TLE):
1 31229U 99025BLK 24109.12935440  .00007069  00000-0  35757-2 0  9997
2 31229  98.8992 177.0057 0059512 222.9927 136.6588 14.15504711875237
Source of the keplerian elements: AFSPC